ニオワイズ彗星

C/2021 A7 ( NEOWISE )

English version
Home page
Updated on January 20, 2022

---------------------------------------------------------------------

・ プロフィール

発見日 2021年1月9日
発見光度 20等
発見者 Near-Earth Object Wide-field Infrared Survey Explorer

・ 写真集

・ 軌道要素

Epoch 2022 Jan. 21.0 TT = JDT 2459600.5
T 2021 July 15.30140 TT                                 Rudenko
q   1.9676123            (2000.0)            P               Q
z  +0.0001918      Peri.  356.05179     -0.89449651     -0.15029653
 +/-0.0000066      Node   154.51823     +0.43230204     -0.53087633
e   0.9996226      Incl.   78.14961     +0.11397779     +0.83401515
From 247 observations 2021 Jan. 9-June 11, mean residual 0".5.

・ 星図

・ 光度変化

        m1 = 7.0 + 5 logΔ + 20.0 log r(t + 50)

---------------------------------------------------------------------

軌道要素はM.P.E.C. 2022-A21に掲載されたものです。
星図はステラナビゲータ Ver.10 (アストロアーツ) で作成したものです。
光度グラフはComet for Windowsで作成したものです。

---------------------------------------------------------------------

Copyright(C) Seiichi Yoshida (comet@aerith.net). All rights reserved.